Total_Precipitation_Accumulation
0.99 1.01 1.00 0.98 0.90 0.88 0.93 0.95 0.94 0.93 0.93 0.87 0.80 0.74 0.79 0.77 0.72 0.76 0.79 0.81 0.87 0.98 1.10 1.19 1.30 1.53 1.78 1.75 1.62 1.45 1.30 1.15 0.94 0.78 0.58 0.40 0.37 0.32 0.29 0.20 0.17 0.19 0.19
0.92 0.95 0.94 0.85 0.80 0.77 0.75 0.72 0.65 0.63 0.64 0.70 0.76 0.69 0.66 0.69 0.68 0.73 0.78 0.79 0.76 0.79 0.87 0.95 1.06 1.33 1.66 1.83 1.85 1.70 1.50 1.33 1.22 1.09 0.80 0.52 0.45 0.47 0.48 0.41 0.29 0.25 0.25
1.00 0.86 0.78 0.74 0.70 0.69 0.60 0.56 0.54 0.49 0.48 0.51 0.58 0.57 0.61 0.65 0.67 0.69 0.71 0.74 0.78 0.82 0.91 0.92 0.90 1.04 1.25 1.46 1.60 1.65 1.60 1.52 1.44 1.24 1.02 0.79 0.65 0.55 0.52 0.45 0.40 0.41 0.36
1.11 1.01 0.86 0.77 0.69 0.63 0.55 0.53 0.51 0.49 0.49 0.55 0.65 0.67 0.62 0.57 0.59 0.66 0.67 0.65 0.67 0.72 0.75 0.79 0.81 0.78 0.88 1.04 1.20 1.33 1.47 1.59 1.59 1.44 1.23 0.95 0.85 0.67 0.55 0.53 0.53 0.54 0.51
1.09 1.07 0.92 0.86 0.78 0.65 0.59 0.60 0.57 0.60 0.56 0.56 0.64 0.72 0.80 0.76 0.72 0.77 0.71 0.67 0.66 0.66 0.68 0.66 0.70 0.68 0.67 0.74 0.81 1.01 1.28 1.48 1.52 1.50 1.39 1.11 0.87 0.71 0.53 0.52 0.58 0.66 0.63
0.75 0.81 0.77 0.69 0.61 0.58 0.57 0.55 0.52 0.50 0.47 0.46 0.48 0.55 0.64 0.68 0.87 0.80 0.62 0.55 0.58 0.63 0.68 0.66 0.65 0.57 0.55 0.57 0.62 0.67 0.86 1.04 1.17 1.20 1.19 1.04 0.87 0.73 0.65 0.58 0.51 0.47 0.49
0.47 0.56 0.55 0.49 0.43 0.40 0.45 0.45 0.43 0.39 0.40 0.37 0.36 0.36 0.41 0.56 0.63 0.46 0.43 0.46 0.55 0.63 0.69 0.69 0.66 0.61 0.59 0.58 0.56 0.54 0.55 0.63 0.73 0.87 0.94 0.92 0.95 0.81 0.69 0.58 0.53 0.48 0.42
0.22 0.26 0.27 0.28 0.27 0.29 0.31 0.32 0.33 0.32 0.30 0.29 0.36 0.43 0.44 0.45 0.49 0.39 0.37 0.45 0.60 0.70 0.67 0.61 0.64 0.65 0.66 0.65 0.55 0.58 0.53 0.54 0.57 0.54 0.65 0.83 0.91 0.98 0.87 0.71 0.65 0.56 0.49
0.06 0.08 0.10 0.12 0.14 0.17 0.18 0.21 0.30 0.33 0.34 0.37 0.47 0.54 0.47 0.39 0.42 0.41 0.45 0.57 0.67 0.75 0.70 0.66 0.68 0.69 0.81 0.76 0.60 0.65 0.61 0.59 0.56 0.62 0.67 0.70 0.71 0.74 0.78 0.72 0.64 0.57 0.50
0.00 0.00 0.01 0.01 0.02 0.05 0.08 0.11 0.17 0.24 0.31 0.38 0.39 0.36 0.36 0.42 0.47 0.43 0.52 0.69 0.78 0.87 0.82 0.78 0.94 0.86 0.81 0.71 0.59 0.68 0.70 0.56 0.50 0.54 0.52 0.49 0.47 0.48 0.55 0.58 0.66 0.66 0.57
0.00 0.00 0.00 0.00 0.00 0.01 0.02 0.03 0.06 0.11 0.15 0.17 0.18 0.21 0.27 0.44 0.49 0.48 0.66 0.73 0.77 0.90 0.90 0.83 0.73 0.83 0.70 0.61 0.56 0.56 0.67 0.53 0.47 0.51 0.48 0.43 0.38 0.36 0.38 0.44 0.50 0.55 0.57
0.00 0.00 0.00 0.00 0.00 0.01 0.01 0.02 0.02 0.04 0.06 0.09 0.12 0.15 0.21 0.29 0.36 0.39 0.50 0.61 0.67 0.81 0.84 0.73 0.62 0.80 0.67 0.51 0.44 0.44 0.54 0.55 0.47 0.51 0.50 0.44 0.38 0.34 0.30 0.32 0.35 0.36 0.37
0.00 0.00 0.00 0.00 0.01 0.01 0.01 0.01 0.02 0.03 0.06 0.07 0.11 0.17 0.23 0.27 0.27 0.30 0.36 0.43 0.53 0.66 0.68 0.71 0.70 0.65 0.51 0.39 0.44 0.46 0.47 0.50 0.52 0.51 0.44 0.33 0.27 0.26 0.27 0.33 0.39 0.40 0.38
0.00 0.00 0.00 0.01 0.01 0.01 0.01 0.02 0.02 0.02 0.05 0.08 0.15 0.21 0.24 0.26 0.26 0.31 0.38 0.39 0.45 0.50 0.52 0.56 0.56 0.47 0.41 0.38 0.40 0.43 0.44 0.46 0.49 0.43 0.32 0.21 0.17 0.18 0.21 0.25 0.34 0.43 0.50
0.00 0.00 0.00 0.01 0.01 0.01 0.01 0.01 0.02 0.02 0.04 0.10 0.13 0.16 0.17 0.19 0.22 0.28 0.38 0.44 0.53 0.59 0.59 0.51 0.49 0.49 0.44 0.38 0.37 0.36 0.34 0.33 0.32 0.31 0.28 0.24 0.21 0.20 0.16 0.14 0.18 0.22 0.28
0.00 0.00 0.00 0.01 0.01 0.01 0.02 0.02 0.01 0.01 0.02 0.04 0.05 0.07 0.13 0.15 0.12 0.13 0.22 0.35 0.50 0.68 0.89 0.85 0.80 0.76 0.68 0.53 0.37 0.26 0.22 0.24 0.25 0.25 0.25 0.24 0.20 0.17 0.15 0.13 0.12 0.14 0.17
0.00 0.00 0.00 0.00 0.01 0.01 0.03 0.06 0.08 0.05 0.01 0.01 0.01 0.04 0.09 0.14 0.13 0.16 0.22 0.26 0.38 0.65 0.98 0.96 0.91 0.76 0.62 0.52 0.37 0.21 0.14 0.15 0.17 0.16 0.16 0.16 0.14 0.12 0.10 0.09 0.07 0.08 0.09
0.00 0.00 0.00 0.01 0.01 0.01 0.02 0.06 0.16 0.21 0.16 0.06 0.01 0.02 0.07 0.13 0.19 0.26 0.35 0.45 0.50 0.61 0.69 0.67 0.59 0.49 0.41 0.29 0.24 0.18 0.11 0.10 0.12 0.12 0.11 0.10 0.09 0.07 0.06 0.07 0.06 0.05 0.05
0.00 0.00 0.02 0.04 0.02 0.01 0.02 0.09 0.14 0.06 0.04 0.06 0.05 0.02 0.02 0.05 0.10 0.17 0.26 0.36 0.37 0.37 0.35 0.29 0.23 0.19 0.17 0.12 0.11 0.10 0.06 0.05 0.06 0.07 0.08 0.08 0.07 0.06 0.05 0.04 0.04 0.05 0.05
0.00 0.00 0.01 0.06 0.06 0.02 0.04 0.08 0.05 0.03 0.04 0.05 0.05 0.03 0.02 0.03 0.06 0.09 0.13 0.15 0.15 0.15 0.13 0.11 0.08 0.05 0.06 0.05 0.03 0.03 0.03 0.03 0.03 0.03 0.04 0.04 0.04 0.04 0.04 0.04 0.04 0.05 0.05
0.00 0.00 0.00 0.02 0.05 0.03 0.03 0.04 0.02 0.02 0.03 0.04 0.03 0.01 0.02 0.05 0.06 0.07 0.06 0.05 0.05 0.05 0.06 0.06 0.03 0.02 0.01 0.01 0.02 0.03 0.03 0.03 0.03 0.03 0.03 0.04 0.03 0.03 0.03 0.03 0.04 0.05 0.05
0.00 0.00 0.00 0.03 0.03 0.02 0.01 0.03 0.04 0.02 0.02 0.02 0.02 0.01 0.03 0.08 0.07 0.04 0.03 0.02 0.02 0.02 0.05 0.07 0.06 0.06 0.02 0.01 0.01 0.01 0.01 0.02 0.02 0.02 0.03 0.03 0.03 0.03 0.02 0.03 0.04 0.05 0.05
0.00 0.00 0.00 0.02 0.03 0.01 0.00 0.01 0.04 0.05 0.03 0.03 0.04 0.02 0.03 0.06 0.07 0.07 0.05 0.05 0.07 0.08 0.05 0.03 0.05 0.05 0.02 0.01 0.01 0.01 0.01 0.01 0.02 0.02 0.02 0.02 0.02 0.02 0.03 0.03 0.04 0.05 0.06
0.00 0.00 0.00 0.01 0.03 0.02 0.02 0.02 0.02 0.02 0.03 0.05 0.05 0.04 0.04 0.06 0.08 0.06 0.04 0.07 0.08 0.07 0.05 0.03 0.02 0.01 0.01 0.01 0.01 0.01 0.01 0.01 0.01 0.01 0.02 0.02 0.03 0.03 0.03 0.04 0.06 0.09 0.14
0.00 0.00 0.00 0.01 0.03 0.02 0.02 0.02 0.01 0.01 0.02 0.05 0.03 0.03 0.02 0.02 0.03 0.02 0.02 0.03 0.04 0.02 0.02 0.01 0.01 0.01 0.00 0.00 0.00 0.00 0.01 0.03 0.04 0.03 0.02 0.02 0.04 0.05 0.05 0.08 0.12 0.15 0.19
0.00 0.00 0.00 0.00 0.01 0.01 0.01 0.01 0.01 0.01 0.02 0.02 0.01 0.03 0.02 0.02 0.02 0.01 0.01 0.01 0.01 0.01 0.01 0.00 0.00 0.00 0.00 0.00 0.00 0.00 0.01 0.02 0.03 0.03 0.02 0.03 0.04 0.04 0.06 0.07 0.09 0.11 0.15